Total_Precipitation_Accumulation
0.81 0.64 0.54 1.13 1.16 1.76 0.94 0.85 0.70 0.63 0.33 0.16 0.21 0.15 0.39 0.58 0.56 0.47 0.26 0.17 0.28 0.13 0.22 0.44 0.04 0.01 0.00 0.00 0.00 0.00 0.00 0.02 0.03 0.21 0.10 0.16 0.03 0.00 0.00 0.00 0.00 0.00 0.00 0.00 0.00 0.00 0.00 0.00 0.00 0.00 0.00 0.00 0.00 0.00 0.00 0.00 0.00 0.01 0.00 0.01 0.02 0.01 0.02 0.04 0.01 0.02 0.01 0.01 0.01 0.00 0.00 0.00 0.00 0.00 0.00 0.00 0.00 0.00 0.00 0.00 0.00 0.00 0.00 0.00 0.00
0.64 0.78 0.63 0.88 0.81 1.36 2.45 1.21 0.62 0.78 0.79 0.32 0.18 0.64 0.61 0.79 0.83 0.87 0.39 0.19 0.27 0.21 0.29 0.04 0.03 0.02 0.00 0.01 0.00 0.00 0.01 0.01 0.02 0.08 0.16 0.16 0.16 0.01 0.00 0.00 0.00 0.00 0.00 0.00 0.00 0.00 0.00 0.00 0.00 0.00 0.00 0.00 0.00 0.01 0.01 0.00 0.01 0.01 0.01 0.01 0.01 0.01 0.01 0.03 0.03 0.01 0.01 0.00 0.00 0.00 0.00 0.00 0.00 0.00 0.00 0.00 0.00 0.00 0.00 0.00 0.00 0.00 0.00 0.00 0.00
0.74 0.75 0.96 1.63 1.36 1.66 1.99 1.29 0.95 1.09 1.11 0.46 0.25 0.51 0.79 0.75 0.64 0.63 0.38 0.28 0.31 0.45 0.09 0.06 0.03 0.11 0.00 0.02 0.10 0.00 0.02 0.02 0.01 0.06 0.05 0.45 0.74 0.21 0.00 0.00 0.00 0.00 0.00 0.00 0.00 0.00 0.00 0.00 0.00 0.00 0.00 0.00 0.00 0.01 0.01 0.00 0.01 0.01 0.01 0.03 0.01 0.01 0.01 0.03 0.05 0.01 0.00 0.00 0.00 0.00 0.00 0.00 0.00 0.00 0.00 0.00 0.00 0.00 0.00 0.00 0.00 0.00 0.00 0.00 0.00
1.20 1.24 1.58 1.63 1.08 1.17 1.61 1.95 2.04 1.15 0.99 0.85 0.59 0.42 0.27 0.27 0.65 0.78 0.56 0.78 0.50 0.30 0.44 0.38 0.08 0.25 0.01 0.01 0.18 0.00 0.02 0.01 0.05 0.28 0.20 0.51 0.54 0.47 0.12 0.01 0.00 0.00 0.00 0.00 0.00 0.00 0.00 0.00 0.00 0.00 0.00 0.00 0.01 0.01 0.00 0.01 0.00 0.02 0.04 0.02 0.00 0.01 0.02 0.04 0.05 0.01 0.01 0.00 0.00 0.00 0.00 0.00 0.00 0.00 0.00 0.00 0.00 0.00 0.00 0.00 0.00 0.00 0.00 0.00 0.00
1.03 0.83 1.19 1.16 1.39 0.89 1.26 1.12 1.79 1.92 1.50 1.43 0.71 0.72 0.44 0.36 0.47 0.60 0.54 0.30 0.28 0.29 0.15 0.18 0.35 0.29 0.49 0.05 0.08 0.07 0.07 0.03 0.01 0.12 0.42 0.46 0.55 0.70 0.25 0.15 0.05 0.00 0.00 0.00 0.00 0.00 0.00 0.00 0.00 0.00 0.00 0.00 0.01 0.00 0.00 0.00 0.01 0.01 0.02 0.02 0.01 0.01 0.01 0.05 0.08 0.01 0.01 0.00 0.00 0.00 0.00 0.00 0.00 0.00 0.00 0.00 0.00 0.00 0.00 0.00 0.00 0.00 0.00 0.00 0.00
0.91 1.18 0.79 0.98 1.12 0.80 0.82 1.17 1.55 1.50 2.28 1.91 1.55 1.02 0.42 0.45 0.62 0.55 0.45 0.36 0.31 0.59 0.25 0.15 0.21 0.20 0.07 0.29 0.05 0.07 0.17 0.24 0.03 0.05 0.60 0.54 0.65 0.69 0.15 0.24 0.12 0.09 0.03 0.00 0.00 0.00 0.00 0.00 0.00 0.00 0.00 0.00 0.00 0.00 0.00 0.01 0.00 0.00 0.01 0.03 0.01 0.01 0.01 0.02 0.10 0.02 0.01 0.00 0.00 0.00 0.00 0.00 0.00 0.00 0.00 0.00 0.00 0.00 0.00 0.00 0.00 0.00 0.00 0.00 0.00
1.00 1.07 0.88 1.22 0.67 0.70 1.03 1.00 1.07 1.53 1.80 1.91 1.51 1.30 0.97 0.59 0.46 0.30 0.29 0.29 0.34 0.39 0.44 0.38 0.38 0.46 0.35 0.18 0.51 0.12 0.02 0.19 0.17 0.11 0.34 0.51 0.43 0.46 0.56 0.63 0.28 0.20 0.18 0.12 0.00 0.00 0.00 0.00 0.00 0.00 0.00 0.00 0.00 0.00 0.00 0.01 0.00 0.00 0.02 0.04 0.02 0.01 0.03 0.01 0.08 0.08 0.00 0.00 0.00 0.00 0.00 0.00 0.00 0.00 0.00 0.00 0.00 0.00 0.00 0.00 0.00 0.00 0.00 0.00 0.00
0.67 0.84 0.89 0.97 0.99 1.10 1.64 1.34 0.99 1.21 1.13 2.29 1.64 1.48 1.41 0.85 0.51 0.25 0.22 0.20 0.25 0.26 0.30 0.53 0.42 0.53 0.31 0.11 0.08 0.14 0.25 0.21 0.36 0.22 0.37 0.61 0.50 0.25 0.54 0.33 0.13 0.47 0.30 0.20 0.23 0.08 0.00 0.00 0.00 0.00 0.00 0.00 0.00 0.00 0.00 0.00 0.00 0.00 0.01 0.01 0.01 0.00 0.02 0.04 0.06 0.09 0.01 0.00 0.00 0.00 0.00 0.00 0.00 0.00 0.00 0.00 0.00 0.00 0.00 0.00 0.00 0.00 0.00 0.00 0.00
0.50 0.58 0.52 1.15 1.37 1.53 2.44 1.44 0.88 0.84 1.36 2.01 1.05 1.16 1.29 1.47 0.69 0.53 0.38 0.28 0.29 0.40 0.45 0.22 0.26 0.21 0.11 0.09 0.07 0.27 0.44 0.26 0.62 0.40 0.73 0.56 0.43 0.37 0.43 0.34 0.39 0.32 0.27 0.28 0.42 0.43 0.05 0.00 0.00 0.00 0.00 0.00 0.00 0.00 0.00 0.00 0.00 0.00 0.00 0.01 0.02 0.01 0.00 0.05 0.06 0.05 0.06 0.01 0.00 0.00 0.00 0.00 0.00 0.00 0.00 0.00 0.00 0.00 0.00 0.00 0.00 0.00 0.00 0.00 0.00
0.11 0.29 0.72 0.52 0.69 1.49 1.65 1.25 0.74 0.87 1.50 1.63 1.64 1.22 1.48 1.29 1.11 0.64 0.38 0.58 0.72 0.56 0.62 0.55 0.42 0.20 0.15 0.06 0.07 0.48 0.14 0.10 0.46 0.49 0.68 0.90 0.62 0.59 0.29 0.52 0.69 0.48 0.53 0.35 0.41 0.56 0.35 0.03 0.03 0.00 0.00 0.00 0.00 0.00 0.00 0.00 0.00 0.00 0.00 0.01 0.00 0.00 0.00 0.06 0.11 0.05 0.04 0.05 0.01 0.00 0.00 0.00 0.00 0.00 0.00 0.00 0.00 0.00 0.00 0.00 0.00 0.00 0.00 0.00 0.00
0.03 0.05 0.10 0.19 0.46 0.47 1.11 1.02 0.61 0.75 1.28 1.93 1.80 1.42 1.07 1.01 0.92 1.15 1.07 1.00 1.13 0.91 0.74 0.88 0.55 0.51 0.80 0.54 0.16 0.34 0.26 0.25 0.48 0.53 0.57 0.53 0.65 0.54 0.66 0.44 0.73 0.73 0.72 0.41 0.51 0.67 0.44 0.21 0.15 0.10 0.13 0.01 0.00 0.00 0.00 0.00 0.00 0.00 0.00 0.00 0.00 0.01 0.01 0.08 0.07 0.05 0.07 0.07 0.03 0.00 0.00 0.00 0.00 0.00 0.00 0.00 0.00 0.00 0.00 0.00 0.00 0.00 0.00 0.00 0.00
0.04 0.05 0.04 0.05 0.11 0.26 0.60 1.61 0.42 0.90 1.01 1.42 1.32 1.48 1.06 1.14 1.14 1.32 1.46 0.99 1.15 1.74 1.40 1.01 1.55 1.04 1.44 0.93 0.39 0.37 0.80 0.60 0.46 0.36 0.43 0.38 0.33 0.46 0.82 0.75 0.81 0.62 0.77 0.34 0.31 0.29 0.33 0.32 0.36 0.39 0.35 0.13 0.01 0.00 0.00 0.00 0.00 0.01 0.02 0.02 0.03 0.01 0.02 0.05 0.07 0.03 0.05 0.10 0.07 0.02 0.00 0.00 0.00 0.00 0.00 0.00 0.00 0.00 0.00 0.00 0.00 0.00 0.00 0.00 0.00
0.05 0.08 0.04 0.03 0.07 0.05 0.08 0.18 0.53 0.59 1.05 1.62 1.07 1.60 1.54 1.86 1.67 1.34 1.45 1.59 1.49 2.01 2.18 1.52 1.13 1.06 0.69 0.30 0.52 0.43 0.57 0.36 0.27 0.36 0.41 0.20 0.48 0.73 0.56 0.47 0.57 1.11 0.85 0.67 0.37 0.09 0.37 0.37 0.29 0.61 0.46 0.18 0.09 0.02 0.00 0.00 0.00 0.00 0.01 0.05 0.05 0.05 0.05 0.06 0.10 0.05 0.02 0.05 0.04 0.04 0.00 0.00 0.00 0.00 0.00 0.00 0.00 0.00 0.00 0.00 0.00 0.00 0.00 0.00 0.00
0.01 0.03 0.02 0.03 0.03 0.05 0.04 0.05 0.06 0.18 0.47 0.72 0.78 1.07 1.30 1.20 1.32 1.67 1.62 1.53 1.49 1.72 2.18 1.06 1.47 1.17 1.65 0.73 0.53 0.58 0.66 0.36 0.32 0.29 0.32 0.23 0.37 0.47 0.62 0.48 0.57 0.54 0.45 0.36 0.51 0.18 0.19 0.29 0.60 0.76 0.34 0.49 0.36 0.13 0.24 0.11 0.18 0.00 0.00 0.01 0.07 0.15 0.11 0.10 0.09 0.09 0.09 0.03 0.02 0.06 0.00 0.00 0.00 0.00 0.00 0.00 0.00 0.00 0.00 0.00 0.00 0.00 0.00 0.00 0.00
0.00 0.00 0.00 0.00 0.01 0.01 0.01 0.01 0.04 0.04 0.10 0.13 0.17 0.36 0.64 0.74 1.27 1.42 1.88 1.46 1.13 1.33 1.57 1.13 1.49 2.19 1.88 0.92 1.03 0.88 0.67 0.47 0.40 0.39 0.36 0.27 0.16 0.30 0.56 1.14 0.57 0.35 0.48 0.29 0.16 0.44 0.67 0.45 0.35 0.34 0.29 0.66 0.58 0.60 0.52 0.29 0.30 0.04 0.01 0.03 0.07 0.16 0.21 0.23 0.33 0.16 0.12 0.07 0.06 0.05 0.01 0.00 0.00 0.00 0.00 0.00 0.00 0.00 0.00 0.00 0.00 0.00 0.00 0.00 0.00
0.00 0.00 0.00 0.00 0.00 0.00 0.00 0.01 0.01 0.02 0.02 0.04 0.09 0.13 0.31 0.36 0.78 1.11 1.72 1.20 0.74 1.41 0.90 1.53 1.32 1.20 1.64 0.88 1.18 0.86 0.73 0.48 0.51 0.55 0.32 0.24 0.16 0.26 0.56 0.66 0.57 0.70 0.74 0.79 0.77 0.35 0.44 0.70 0.41 0.38 0.30 0.54 0.62 0.50 0.73 0.50 0.19 0.07 0.02 0.01 0.01 0.01 0.12 0.27 0.46 0.64 0.36 0.07 0.07 0.09 0.03 0.00 0.00 0.00 0.00 0.00 0.00 0.00 0.00 0.00 0.00 0.00 0.00 0.00 0.00
0.00 0.00 0.00 0.00 0.00 0.00 0.00 0.00 0.00 0.01 0.03 0.08 0.06 0.05 0.08 0.32 0.24 0.63 0.82 1.06 0.86 0.80 1.12 1.24 1.90 1.49 1.48 1.16 0.96 0.76 0.75 0.83 0.37 0.64 0.40 0.46 0.26 0.34 0.50 0.21 0.40 0.60 0.60 0.54 0.53 0.64 0.65 0.76 0.46 0.46 0.39 0.49 0.32 0.39 0.86 0.73 0.42 0.24 0.19 0.05 0.03 0.02 0.05 0.24 0.57 0.54 0.50 0.39 0.34 0.28 0.19 0.08 0.05 0.03 0.01 0.00 0.00 0.00 0.00 0.00 0.00 0.00 0.00 0.00 0.00
0.00 0.00 0.00 0.00 0.00 0.00 0.00 0.00 0.00 0.01 0.01 0.02 0.04 0.02 0.06 0.04 0.11 0.28 0.27 0.49 0.77 0.70 1.04 0.54 1.45 1.29 1.65 0.55 0.88 1.23 1.40 1.23 0.42 1.20 0.32 0.44 0.49 0.47 0.45 0.40 0.28 0.38 0.65 0.59 0.46 0.44 0.29 0.27 0.50 0.27 0.78 0.78 0.81 0.87 0.91 0.68 0.73 0.84 0.75 0.59 0.20 0.08 0.08 0.18 0.19 0.51 0.68 0.72 0.48 1.03 0.48 0.28 0.15 0.15 0.11 0.19 0.04 0.05 0.00 0.00 0.00 0.00 0.00 0.00 0.00
0.00 0.00 0.00 0.00 0.00 0.00 0.00 0.00 0.00 0.00 0.00 0.02 0.02 0.02 0.02 0.07 0.11 0.25 0.23 0.28 0.39 0.41 0.50 0.59 0.71 1.67 1.28 0.54 0.99 1.08 0.88 0.61 1.06 0.89 1.13 0.87 0.65 0.57 0.68 0.43 0.24 0.30 0.49 0.32 0.17 0.26 0.25 0.23 0.39 0.62 0.69 0.75 1.13 0.80 0.62 0.56 0.49 0.36 0.31 0.32 0.43 0.53 0.32 0.33 0.28 0.23 0.39 0.64 0.74 0.50 0.82 0.69 0.74 0.38 0.24 0.31 0.18 0.11 0.05 0.07 0.02 0.01 0.01 0.01 0.00
0.00 0.00 0.00 0.00 0.00 0.00 0.00 0.00 0.00 0.00 0.00 0.00 0.01 0.01 0.01 0.02 0.04 0.04 0.04 0.10 0.18 0.20 0.29 0.34 0.38 0.64 0.46 0.72 0.90 1.64 1.32 1.18 0.61 0.70 0.93 0.99 1.27 0.60 0.42 0.77 0.35 0.23 0.31 0.16 0.34 0.67 0.43 0.26 0.50 0.56 0.59 1.11 0.79 0.83 0.56 0.72 0.60 0.42 0.31 0.23 0.39 0.54 0.67 0.47 0.35 0.26 0.22 0.29 0.59 0.66 0.74 0.78 0.60 0.79 0.48 0.11 0.47 0.18 0.24 0.21 0.18 0.17 0.07 0.03 0.01
0.00 0.00 0.00 0.00 0.00 0.00 0.00 0.00 0.00 0.00 0.00 0.00 0.00 0.00 0.01 0.03 0.03 0.07 0.06 0.07 0.09 0.11 0.14 0.16 0.32 0.25 0.28 0.41 0.26 0.48 0.65 1.11 1.33 0.87 0.69 0.64 0.67 0.48 0.57 0.29 0.28 0.68 0.67 0.44 0.28 0.13 0.06 0.15 0.31 0.20 0.57 0.28 0.50 0.30 0.57 0.66 1.12 0.99 0.71 0.65 0.62 0.31 0.39 0.41 0.41 0.53 0.50 0.50 0.77 0.50 1.22 1.13 1.30 0.69 0.79 0.55 1.31 0.80 0.58 0.64 0.46 0.23 0.24 0.19 0.48
0.00 0.00 0.00 0.00 0.00 0.00 0.00 0.00 0.00 0.00 0.00 0.00 0.00 0.00 0.00 0.01 0.01 0.03 0.02 0.05 0.08 0.13 0.12 0.10 0.11 0.19 0.19 0.36 0.41 0.14 0.18 0.37 0.41 0.54 0.82 0.49 0.53 0.47 0.85 0.66 0.58 0.27 0.36 0.65 0.45 0.18 0.19 0.18 0.21 0.24 0.48 0.26 0.41 0.77 0.40 0.41 0.49 0.47 0.44 0.27 0.30 0.36 0.32 0.46 0.66 0.50 0.76 0.78 1.04 0.66 0.64 1.17 1.02 0.71 0.63 0.76 0.49 0.73 0.66 0.60 0.59 0.63 0.86 0.55 0.51
0.00 0.00 0.00 0.00 0.00 0.00 0.00 0.00 0.00 0.00 0.00 0.00 0.00 0.00 0.00 0.00 0.00 0.00 0.03 0.05 0.04 0.07 0.11 0.11 0.13 0.14 0.11 0.15 0.19 0.26 0.29 0.15 0.20 0.20 0.31 0.63 0.53 0.36 0.33 0.28 0.05 0.08 0.14 0.26 0.29 0.22 0.22 0.19 0.11 0.09 0.03 0.03 0.07 0.05 0.09 0.22 0.21 0.24 0.20 0.11 0.08 0.06 0.25 0.29 0.31 0.16 0.15 0.60 0.39 1.48 0.63 0.52 0.63 0.35 0.65 0.56 0.91 0.44 1.01 0.82 1.00 0.82 0.88 0.74 0.90
0.00 0.00 0.00 0.00 0.00 0.00 0.00 0.00 0.00 0.00 0.00 0.00 0.00 0.00 0.00 0.00 0.00 0.01 0.01 0.02 0.03 0.03 0.03 0.10 0.11 0.11 0.11 0.16 0.19 0.24 0.19 0.17 0.21 0.26 0.28 0.20 0.26 0.15 0.21 0.14 0.02 0.01 0.00 0.03 0.01 0.01 0.02 0.02 0.02 0.03 0.06 0.01 0.05 0.06 0.02 0.02 0.05 0.09 0.13 0.10 0.04 0.02 0.05 0.14 0.40 0.27 0.32 0.29 2.18 1.44 0.40 0.17 0.22 0.42 0.66 1.07 1.21 0.92 1.18 0.80 0.77 0.92 0.96 0.83 0.56
0.00 0.00 0.00 0.00 0.00 0.00 0.00 0.00 0.00 0.00 0.00 0.00 0.00 0.00 0.00 0.00 0.00 0.00 0.01 0.03 0.04 0.05 0.03 0.06 0.06 0.10 0.08 0.16 0.16 0.12 0.14 0.13 0.16 0.26 0.23 0.28 0.55 0.25 0.07 0.23 0.08 0.01 0.01 0.01 0.01 0.00 0.00 0.00 0.00 0.01 0.01 0.01 0.02 0.01 0.03 0.04 0.05 0.05 0.01 0.01 0.01 0.02 0.08 0.01 0.00 0.02 0.02 0.03 0.06 0.65 0.20 0.17 0.14 0.38 0.65 0.71 0.71 0.57 0.50 0.49 0.45 0.35 0.68 0.75 0.71
0.00 0.00 0.00 0.00 0.00 0.00 0.00 0.00 0.00 0.00 0.00 0.00 0.00 0.00 0.00 0.00 0.00 0.00 0.01 0.01 0.02 0.01 0.03 0.06 0.03 0.06 0.05 0.06 0.10 0.09 0.10 0.10 0.13 0.15 0.20 0.25 0.28 0.31 0.19 0.14 0.09 0.05 0.02 0.04 0.01 0.01 0.00 0.00 0.00 0.00 0.00 0.00 0.00 0.02 0.00 0.04 0.05 0.05 0.01 0.01 0.07 0.02 0.00 0.00 0.00 0.00 0.00 0.01 0.03 0.05 0.02 0.01 0.01 0.01 0.01 0.12 0.15 0.10 0.07 0.14 0.18 0.56 0.82 0.51 0.36
0.00 0.00 0.00 0.00 0.00 0.00 0.00 0.00 0.00 0.00 0.00 0.00 0.00 0.00 0.00 0.00 0.00 0.00 0.00 0.00 0.01 0.01 0.02 0.02 0.05 0.03 0.03 0.04 0.08 0.09 0.06 0.07 0.08 0.13 0.18 0.24 0.22 0.24 0.23 0.23 0.20 0.10 0.09 0.03 0.06 0.03 0.01 0.00 0.00 0.00 0.00 0.00 0.00 0.01 0.01 0.08 0.02 0.04 0.06 0.22 0.41 0.11 0.05 0.04 0.08 0.16 0.18 0.07 0.03 0.02 0.00 0.00 0.00 0.00 0.00 0.00 0.00 0.00 0.03 0.10 0.06 0.01 0.03 0.09 0.26
0.00 0.00 0.00 0.00 0.00 0.00 0.00 0.00 0.00 0.00 0.00 0.00 0.00 0.00 0.00 0.00 0.00 0.00 0.00 0.00 0.00 0.01 0.03 0.03 0.03 0.03 0.05 0.04 0.03 0.03 0.05 0.07 0.06 0.09 0.13 0.19 0.17 0.20 0.31 0.29 0.32 0.26 0.14 0.08 0.05 0.05 0.02 0.01 0.01 0.00 0.01 0.02 0.01 0.01 0.00 0.01 0.02 0.02 0.06 0.21 0.14 0.13 0.33 0.19 0.10 0.12 0.13 0.08 0.06 0.06 0.05 0.03 0.00 0.00 0.00 0.00 0.00 0.01 0.01 0.01 0.02 0.02 0.03 0.01 0.12
0.00 0.00 0.00 0.00 0.00 0.00 0.00 0.00 0.00 0.00 0.00 0.00 0.00 0.00 0.00 0.00 0.00 0.00 0.00 0.00 0.00 0.00 0.00 0.02 0.03 0.04 0.05 0.04 0.05 0.03 0.04 0.01 0.02 0.04 0.08 0.10 0.19 0.18 0.21 0.35 0.34 0.43 0.18 0.11 0.06 0.04 0.03 0.01 0.02 0.01 0.00 0.00 0.01 0.01 0.01 0.00 0.01 0.01 0.13 0.06 0.06 0.08 0.15 0.20 0.08 0.08 0.16 0.20 0.15 0.05 0.08 0.13 0.06 0.04 0.01 0.00 0.00 0.00 0.01 0.02 0.05 0.03 0.02 0.04 0.04
0.00 0.00 0.00 0.00 0.00 0.00 0.00 0.00 0.00 0.00 0.00 0.00 0.00 0.00 0.00 0.00 0.00 0.00 0.00 0.00 0.00 0.00 0.00 0.01 0.01 0.02 0.02 0.03 0.06 0.07 0.02 0.02 0.02 0.03 0.08 0.07 0.10 0.17 0.14 0.26 0.28 0.34 0.26 0.23 0.12 0.05 0.04 0.04 0.03 0.03 0.01 0.00 0.01 0.01 0.00 0.00 0.00 0.00 0.00 0.02 0.02 0.05 0.05 0.14 0.31 0.18 0.10 0.14 0.25 0.24 0.32 0.32 0.37 0.41 0.17 0.12 0.09 0.07 0.06 0.13 0.08 0.11 0.09 0.09 0.03
0.00 0.00 0.00 0.00 0.00 0.00 0.00 0.00 0.00 0.00 0.00 0.00 0.00 0.00 0.00 0.00 0.00 0.00 0.00 0.00 0.00 0.00 0.00 0.00 0.00 0.01 0.02 0.02 0.04 0.05 0.02 0.02 0.01 0.01 0.05 0.11 0.11 0.10 0.11 0.13 0.19 0.27 0.25 0.24 0.22 0.09 0.03 0.05 0.03 0.01 0.02 0.02 0.01 0.00 0.00 0.00 0.00 0.00 0.00 0.00 0.00 0.00 0.00 0.04 0.09 0.09 0.08 0.11 0.11 0.15 0.13 0.14 0.10 0.11 0.13 0.11 0.13 0.15 0.10 0.09 0.07 0.06 0.12 0.07 0.08
0.00 0.00 0.00 0.00 0.00 0.00 0.00 0.00 0.00 0.00 0.00 0.00 0.00 0.00 0.00 0.00 0.00 0.00 0.00 0.00 0.00 0.00 0.00 0.00 0.00 0.00 0.01 0.02 0.04 0.03 0.04 0.04 0.03 0.02 0.02 0.03 0.08 0.15 0.15 0.18 0.14 0.26 0.38 0.32 0.28 0.17 0.06 0.05 0.03 0.02 0.06 0.04 0.01 0.00 0.03 0.01 0.00 0.00 0.00 0.00 0.00 0.00 0.00 0.00 0.00 0.01 0.02 0.03 0.06 0.07 0.12 0.10 0.09 0.16 0.08 0.06 0.07 0.12 0.06 0.06 0.05 0.04 0.04 0.04 0.02
0.00 0.01 0.00 0.00 0.00 0.00 0.00 0.00 0.00 0.00 0.00 0.00 0.00 0.00 0.00 0.00 0.00 0.00 0.00 0.00 0.00 0.00 0.00 0.00 0.00 0.00 0.00 0.00 0.02 0.05 0.05 0.04 0.04 0.03 0.03 0.04 0.05 0.05 0.13 0.17 0.22 0.20 0.21 0.24 0.23 0.19 0.09 0.05 0.11 0.07 0.19 0.15 0.13 0.06 0.02 0.02 0.00 0.07 0.01 0.01 0.00 0.00 0.00 0.01 0.00 0.00 0.01 0.01 0.01 0.00 0.00 0.00 0.00 0.02 0.03 0.06 0.05 0.03 0.04 0.04 0.04 0.04 0.04 0.03 0.03
0.00 0.01 0.00 0.02 0.03 0.00 0.02 0.01 0.00 0.00 0.00 0.00 0.00 0.00 0.00 0.00 0.00 0.00 0.00 0.00 0.00 0.00 0.00 0.00 0.00 0.00 0.00 0.00 0.00 0.00 0.04 0.02 0.04 0.03 0.03 0.04 0.04 0.06 0.08 0.11 0.16 0.18 0.19 0.25 0.19 0.19 0.12 0.07 0.11 0.13 0.07 0.09 0.25 0.19 0.18 0.02 0.00 0.00 0.00 0.00 0.00 0.00 0.01 0.01 0.03 0.00 0.00 0.01 0.01 0.01 0.00 0.00 0.00 0.03 0.04 0.04 0.02 0.01 0.03 0.06 0.03 0.01 0.01 0.01 0.01
0.00 0.00 0.00 0.01 0.00 0.00 0.01 0.01 0.00 0.00 0.00 0.11 0.02 0.08 0.06 0.02 0.01 0.00 0.00 0.00 0.00 0.01 0.00 0.00 0.00 0.00 0.00 0.00 0.00 0.00 0.00 0.02 0.04 0.03 0.07 0.04 0.03 0.03 0.05 0.06 0.12 0.22 0.20 0.22 0.27 0.23 0.21 0.19 0.14 0.19 0.12 0.14 0.08 0.05 0.06 0.11 0.03 0.00 0.00 0.00 0.00 0.00 0.00 0.00 0.00 0.00 0.00 0.00 0.01 0.01 0.01 0.00 0.00 0.00 0.00 0.05 0.10 0.04 0.02 0.03 0.02 0.00 0.00 0.00 0.05
0.04 0.07 0.24 0.12 0.02 0.04 0.16 0.06 0.01 0.02 0.01 0.02 0.13 0.28 0.03 0.02 0.00 0.06 0.05 0.06 0.14 0.03 0.04 0.00 0.00 0.00 0.00 0.00 0.00 0.00 0.01 0.01 0.02 0.02 0.04 0.04 0.06 0.05 0.07 0.08 0.19 0.16 0.20 0.25 0.25 0.24 0.18 0.15 0.12 0.16 0.12 0.14 0.11 0.06 0.04 0.04 0.11 0.02 0.01 0.01 0.01 0.01 0.00 0.00 0.00 0.00 0.00 0.00 0.00 0.01 0.01 0.03 0.00 0.00 0.00 0.03 0.07 0.06 0.10 0.07 0.02 0.03 0.00 0.01 0.00
0.31 0.27 0.16 0.12 0.33 0.30 0.12 0.14 0.10 0.14 0.31 0.34 0.44 0.20 0.14 0.24 0.03 0.03 0.02 0.05 0.09 0.07 0.08 0.03 0.03 0.02 0.01 0.01 0.00 0.00 0.00 0.01 0.01 0.01 0.03 0.04 0.04 0.06 0.07 0.05 0.11 0.19 0.19 0.27 0.14 0.15 0.21 0.19 0.16 0.16 0.17 0.13 0.13 0.15 0.07 0.04 0.04 0.03 0.06 0.07 0.02 0.01 0.01 0.00 0.00 0.00 0.00 0.00 0.00 0.00 0.00 0.01 0.03 0.01 0.00 0.00 0.01 0.00 0.01 0.05 0.14 0.05 0.00 0.03 0.01
0.20 0.16 0.22 0.44 0.58 0.36 0.21 0.21 0.35 0.35 0.41 0.57 0.63 0.37 0.24 0.09 0.07 0.14 0.11 0.07 0.05 0.10 0.10 0.08 0.30 0.10 0.06 0.03 0.09 0.01 0.02 0.00 0.01 0.05 0.02 0.09 0.08 0.10 0.11 0.08 0.10 0.21 0.16 0.20 0.16 0.26 0.24 0.17 0.21 0.15 0.42 0.16 0.30 0.42 0.18 0.07 0.06 0.02 0.01 0.02 0.03 0.04 0.02 0.01 0.00 0.00 0.00 0.00 0.12 0.03 0.02 0.03 0.02 0.03 0.03 0.02 0.01 0.01 0.02 0.01 0.02 0.03 0.04 0.06 0.08
0.96 0.64 0.67 0.61 0.92 0.58 0.33 0.34 0.31 0.48 0.53 0.75 0.68 0.36 0.33 0.36 0.17 0.19 0.06 0.11 0.08 0.13 0.08 0.37 0.33 0.09 0.23 0.33 0.12 0.04 0.04 0.02 0.03 0.03 0.02 0.02 0.07 0.15 0.07 0.09 0.04 0.22 0.23 0.14 0.14 0.17 0.18 0.19 0.18 0.18 0.32 0.28 0.29 0.62 0.19 0.09 0.03 0.09 0.04 0.06 0.02 0.01 0.02 0.02 0.01 0.02 0.01 0.03 0.03 0.03 0.05 0.08 0.09 0.10 0.09 0.08 0.09 0.07 0.11 0.07 0.07 0.05 0.04 0.03 0.03
0.63 0.55 0.74 0.91 0.37 0.33 0.41 0.47 0.35 0.38 0.78 0.97 0.44 0.35 0.21 0.20 0.14 0.26 0.38 0.36 0.45 0.37 0.50 0.29 0.11 0.35 0.26 0.20 0.14 0.26 0.11 0.12 0.04 0.10 0.02 0.02 0.05 0.05 0.23 0.18 0.20 0.23 0.25 0.23 0.28 0.24 0.19 0.12 0.19 0.21 0.29 0.35 0.38 0.26 0.44 0.27 0.08 0.19 0.08 0.14 0.20 0.12 0.24 0.03 0.02 0.03 0.05 0.06 0.07 0.07 0.09 0.13 0.20 0.13 0.15 0.14 0.12 0.12 0.19 0.16 0.19 0.25 0.16 0.12 0.12
1.02 1.22 0.78 0.50 0.53 0.70 0.50 0.32 0.50 1.13 1.31 0.94 0.39 0.39 0.21 0.16 0.21 0.36 0.29 0.67 0.21 0.33 0.65 0.53 0.15 0.23 0.14 0.29 0.33 0.13 0.04 0.01 0.01 0.01 0.01 0.02 0.06 0.19 0.16 0.15 0.25 0.17 0.22 0.52 0.45 0.42 0.37 0.47 0.52 0.28 0.33 0.27 0.37 0.19 0.21 0.11 0.03 0.03 0.02 0.02 0.03 0.28 0.16 0.24 0.07 0.09 0.10 0.09 0.10 0.10 0.11 0.08 0.09 0.13 0.12 0.14 0.17 0.22 0.29 0.27 0.27 0.24 0.24 0.33 0.17
0.84 0.77 0.60 0.71 0.63 0.40 0.44 0.56 0.78 1.01 0.54 0.55 0.07 0.03 0.02 0.16 0.51 0.27 0.28 0.26 0.40 0.58 0.53 0.18 0.22 0.29 0.37 0.12 0.01 0.00 0.03 0.13 0.13 0.11 0.06 0.02 0.00 0.04 0.08 0.25 0.16 0.41 0.30 0.38 0.30 0.48 0.59 0.55 0.34 0.57 0.62 0.44 0.17 0.09 0.07 0.03 0.07 0.51 0.01 0.01 0.01 0.00 0.01 0.04 0.06 0.06 0.13 0.10 0.09 0.12 0.12 0.06 0.07 0.07 0.08 0.10 0.18 0.35 0.23 0.19 0.22 0.23 0.26 0.30 0.32
0.45 0.29 0.28 0.18 0.15 0.18 0.54 0.55 0.55 0.44 0.32 0.13 0.03 0.04 0.01 0.01 0.04 0.35 0.20 0.22 0.15 0.22 0.25 0.22 0.12 0.34 0.54 0.12 0.06 0.02 0.06 0.14 1.29 0.15 0.12 0.05 0.03 0.05 0.04 0.08 0.20 0.10 0.54 0.49 0.45 0.32 0.50 0.39 0.30 0.28 0.42 0.45 0.30 0.13 0.07 0.10 0.13 0.05 0.12 0.06 0.06 0.02 0.05 0.06 0.03 0.04 0.04 0.09 0.04 0.08 0.06 0.13 0.10 0.09 0.08 0.15 0.11 0.26 0.28 0.17 0.21 0.21 0.25 0.29 0.32
0.16 0.21 0.10 0.11 0.11 0.21 0.17 0.19 0.40 0.21 0.05 0.02 0.01 0.01 0.01 0.01 0.01 0.05 0.07 0.06 0.09 0.03 0.02 0.03 0.04 0.04 0.08 0.12 0.09 0.07 0.13 0.05 0.44 0.34 0.09 0.00 0.04 0.02 0.00 0.02 0.11 0.11 0.20 0.35 0.31 0.53 0.49 0.29 0.23 0.26 0.32 0.63 0.30 0.20 0.07 0.05 0.03 0.09 0.04 0.03 0.03 0.05 0.06 0.03 0.06 0.02 0.06 0.08 0.21 0.02 0.03 0.06 0.07 0.10 0.13 0.11 0.15 0.22 0.27 0.25 0.28 0.30 0.28 0.32 0.37
0.18 0.14 0.22 0.18 0.30 0.25 0.31 0.22 0.13 0.01 0.01 0.00 0.00 0.01 0.01 0.01 0.01 0.03 0.06 0.02 0.05 0.04 0.21 0.03 0.01 0.02 0.01 0.00 0.01 0.00 0.01 0.02 0.01 0.01 0.08 0.05 0.04 0.00 0.00 0.00 0.01 0.02 0.05 0.10 0.65 0.58 0.34 0.81 0.39 0.37 0.17 0.17 0.31 0.11 0.05 0.05 0.13 0.11 0.04 0.05 0.02 0.04 0.02 0.02 0.01 0.10 0.11 0.21 0.12 0.05 0.12 0.17 0.11 0.11 0.07 0.41 0.10 0.24 0.29 0.18 0.25 0.31 0.22 0.23 0.24
0.12 0.29 0.22 0.23 0.19 0.24 0.09 0.10 0.01 0.01 0.01 0.00 0.00 0.00 0.00 0.01 0.01 0.01 0.02 0.06 0.01 0.01 0.02 0.01 0.00 0.03 0.01 0.01 0.00 0.01 0.02 0.02 0.02 0.01 0.00 0.01 0.00 0.03 0.02 0.06 0.04 0.02 0.02 0.03 0.11 0.25 0.87 0.94 0.49 0.30 0.17 0.39 0.43 0.32 0.15 0.27 0.11 0.13 0.12 0.02 0.10 0.02 0.02 0.07 0.11 0.10 0.30 0.67 0.18 0.35 0.22 0.11 0.14 0.09 0.09 0.23 0.05 0.08 0.17 0.25 0.32 0.27 0.30 0.26 0.21
0.10 0.13 0.04 0.09 0.05 0.01 0.03 0.02 0.01 0.03 0.01 0.00 0.00 0.00 0.00 0.01 0.01 0.02 0.00 0.01 0.04 0.03 0.02 0.02 0.04 0.01 0.05 0.03 0.10 0.03 0.02 0.03 0.01 0.05 0.00 0.01 0.02 0.01 0.01 0.01 0.02 0.03 0.14 0.48 0.39 0.14 0.21 0.42 0.23 0.51 0.42 0.36 0.29 0.25 0.63 0.34 0.15 0.12 0.16 0.14 0.31 0.52 0.38 0.32 0.26 0.28 0.11 0.07 0.25 0.13 0.07 0.24 0.08 0.05 0.10 0.05 0.02 0.03 0.05 0.06 0.10 0.16 0.23 0.31 0.45
0.03 0.02 0.01 0.01 0.01 0.01 0.01 0.02 0.02 0.01 0.01 0.00 0.00 0.00 0.01 0.01 0.01 0.03 0.01 0.01 0.01 0.02 0.02 0.01 0.01 0.01 0.02 0.01 0.01 0.02 0.01 0.00 0.00 0.00 0.00 0.01 0.04 0.03 0.03 0.02 0.08 0.06 0.16 0.10 0.13 0.34 0.25 0.36 0.63 0.41 0.50 0.40 0.24 0.17 0.20 0.26 0.20 0.32 0.30 0.26 0.13 0.11 0.07 0.08 0.05 0.03 0.02 0.12 0.16 0.10 0.09 0.04 0.19 0.13 0.12 0.03 0.03 0.04 0.05 0.08 0.10 0.11 0.17 0.21 0.27
0.03 0.02 0.03 0.01 0.01 0.01 0.01 0.01 0.02 0.01 0.00 0.00 0.00 0.01 0.01 0.01 0.02 0.01 0.01 0.01 0.01 0.02 0.02 0.03 0.01 0.01 0.00 0.00 0.01 0.01 0.00 0.00 0.00 0.00 0.00 0.00 0.02 0.02 0.03 0.04 0.05 0.08 0.03 0.13 0.14 0.22 0.33 0.86 0.42 0.23 0.76 0.26 0.42 0.22 0.22 0.27 0.24 0.46 0.64 0.45 0.19 0.05 0.03 0.02 0.02 0.02 0.03 0.09 0.11 0.05 0.04 0.02 0.04 0.06 0.01 0.01 0.03 0.04 0.04 0.06 0.08 0.10 0.19 0.22 0.28
0.02 0.00 0.01 0.01 0.02 0.01 0.01 0.04 0.01 0.00 0.00 0.00 0.00 0.00 0.01 0.01 0.01 0.01 0.01 0.04 0.02 0.03 0.05 0.02 0.06 0.03 0.02 0.02 0.01 0.06 0.03 0.00 0.00 0.00 0.00 0.00 0.02 0.02 0.02 0.03 0.05 0.03 0.06 0.05 0.05 0.17 0.12 0.11 0.24 0.31 0.40 0.25 0.27 0.32 0.22 0.14 0.29 0.14 0.37 0.29 0.09 0.27 0.29 0.06 0.02 0.09 0.22 0.02 0.05 0.38 0.12 0.01 0.07 0.00 0.00 0.00 0.00 0.01 0.03 0.04 0.04 0.07 0.13 0.21 0.24
0.04 0.15 0.01 0.12 0.13 0.09 0.02 0.01 0.00 0.01 0.00 0.00 0.00 0.00 0.00 0.00 0.04 0.01 0.01 0.04 0.04 0.02 0.02 0.01 0.01 0.03 0.01 0.00 0.00 0.00 0.00 0.00 0.00 0.00 0.00 0.00 0.02 0.01 0.02 0.02 0.05 0.03 0.01 0.01 0.06 0.08 0.14 0.17 0.14 0.20 0.30 0.15 0.26 0.37 0.39 0.21 0.30 0.21 0.27 0.28 0.37 0.06 0.05 0.06 0.04 0.03 0.01 0.00 0.01 0.05 0.01 0.01 0.02 0.03 0.01 0.01 0.01 0.03 0.00 0.04 0.03 0.02 0.05 0.10 0.19